Time,TemperatureF,DewpointF,PressureIn,WindDirection,WindDirectionDegrees,WindSpeedMPH,WindSpeedGustMPH,Humidity,HourlyPrecipIn,Conditions,Clouds,dailyrainin,SoftwareType,DateUTC
2013-02-11 00:00:00,64.8,57.4,30.18,SE,135,1.1,3.6,77,0.00,,,0.00,WUHU216HW,2013-02-11 05:00:00,
2013-02-11 00:05:00,64.8,57.4,30.18,ESE,113,0.7,2.2,77,0.00,,,0.00,WUHU216HW,2013-02-11 05:05:00,
2013-02-11 00:10:00,64.8,57.4,30.19,SE,135,1.6,2.9,77,0.00,,,0.00,WUHU216HW,2013-02-11 05:10:00,
2013-02-11 00:15:00,64.8,57.4,30.18,SE,135,2.5,2.9,77,0.00,,,0.00,WUHU216HW,2013-02-11 05:15:00,
2013-02-11 00:20:00,64.8,57.4,30.18,ESE,113,1.6,2.9,77,0.00,,,0.00,WUHU216HW,2013-02-11 05:20:00,
2013-02-11 00:25:00,64.8,57.4,30.18,ESE,113,2.2,2.9,77,0.00,,,0.00,WUHU216HW,2013-02-11 05:25:00,
2013-02-11 00:30:00,64.8,57.4,30.18,SW,225,1.6,4.0,77,0.00,,,0.00,WUHU216HW,2013-02-11 05:30:00,
2013-02-11 00:35:00,64.8,57.4,30.18,SSE,158,0.4,4.0,77,0.00,,,0.00,WUHU216HW,2013-02-11 05:35:00,
2013-02-11 00:40:00,64.8,57.4,30.18,SE,135,0.7,3.1,77,0.00,,,0.00,WUHU216HW,2013-02-11 05:40:00,
2013-02-11 00:45:00,64.8,57.4,30.18,WSW,248,1.8,3.1,77,0.00,,,0.00,WUHU216HW,2013-02-11 05:45:00,
2013-02-11 00:50:00,65.0,57.6,30.18,ESE,113,2.7,3.6,77,0.00,,,0.00,WUHU216HW,2013-02-11 05:50:00,
2013-02-11 00:55:00,65.0,57.3,30.19,SE,135,1.1,3.6,76,0.00,,,0.00,WUHU216HW,2013-02-11 05:55:00,
2013-02-11 01:00:00,65.0,57.3,30.18,SE,135,0.7,3.4,76,0.00,,,0.00,WUHU216HW,2013-02-11 06:00:00,
2013-02-11 01:05:00,65.0,57.6,30.19,WSW,248,2.5,3.1,77,0.00,,,0.00,WUHU216HW,2013-02-11 06:05:00,
2013-02-11 01:10:00,65.0,57.6,30.19,WSW,248,0.9,3.1,77,0.00,,,0.00,WUHU216HW,2013-02-11 06:10:00,
2013-02-11 01:15:00,65.0,57.3,30.19,WSW,248,2.9,3.4,76,0.00,,,0.00,WUHU216HW,2013-02-11 06:15:00,
2013-02-11 01:20:00,65.0,57.3,30.19,SE,135,0.7,4.0,76,0.00,,,0.00,WUHU216HW,2013-02-11 06:20:00,
2013-02-11 01:25:00,65.0,57.6,30.19,SE,135,1.8,4.0,77,0.00,,,0.00,WUHU216HW,2013-02-11 06:25:00,
2013-02-11 01:30:00,65.0,57.6,30.19,SE,135,1.1,3.1,77,0.00,,,0.00,WUHU216HW,2013-02-11 06:30:00,
2013-02-11 01:35:00,65.0,57.6,30.19,SE,135,1.6,2.9,77,0.00,,,0.00,WUHU216HW,2013-02-11 06:35:00,
2013-02-11 01:40:00,65.0,57.6,30.19,SE,135,3.6,3.6,77,0.00,,,0.00,WUHU216HW,2013-02-11 06:40:00,
2013-02-11 01:45:00,65.0,57.6,30.19,North,0,0.0,4.0,77,0.00,,,0.00,WUHU216HW,2013-02-11 06:45:00,
2013-02-11 01:50:00,65.0,57.6,30.19,SE,135,1.6,4.0,77,0.00,,,0.00,WUHU216HW,2013-02-11 06:50:00,
2013-02-11 01:55:00,64.8,57.4,30.18,SE,135,0.4,3.4,77,0.00,,,0.00,WUHU216HW,2013-02-11 06:55:00,
2013-02-11 02:00:00,64.8,57.4,30.18,ESE,113,1.8,2.9,77,0.00,,,0.00,WUHU216HW,2013-02-11 07:00:00,
2013-02-11 02:05:00,64.8,57.4,30.18,SE,135,0.2,2.9,77,0.00,,,0.00,WUHU216HW,2013-02-11 07:05:00,
2013-02-11 02:10:00,64.6,57.3,30.18,SE,135,3.1,3.1,77,0.00,,,0.00,WUHU216HW,2013-02-11 07:10:00,
2013-02-11 02:15:00,64.4,57.1,30.18,SE,135,1.8,3.1,77,0.00,,,0.00,WUHU216HW,2013-02-11 07:15:00,
2013-02-11 02:20:00,64.4,57.1,30.18,SE,135,0.7,3.1,77,0.00,,,0.00,WUHU216HW,2013-02-11 07:20:00,
2013-02-11 02:25:00,64.4,57.1,30.18,SE,135,1.3,4.0,77,0.00,,,0.00,WUHU216HW,2013-02-11 07:25:00,
2013-02-11 02:30:00,64.3,57.2,30.18,WSW,248,0.4,4.0,78,0.00,,,0.00,WUHU216HW,2013-02-11 07:30:00,
2013-02-11 02:35:00,64.3,57.2,30.17,ESE,113,1.6,4.0,78,0.00,,,0.00,WUHU216HW,2013-02-11 07:35:00,
2013-02-11 02:40:00,64.3,57.2,30.17,SE,135,1.8,4.0,78,0.00,,,0.00,WUHU216HW,2013-02-11 07:40:00,
2013-02-11 02:45:00,64.1,57.1,30.17,SE,135,1.6,4.0,78,0.00,,,0.00,WUHU216HW,2013-02-11 07:45:00,
2013-02-11 02:50:00,63.9,57.2,30.16,SE,135,1.1,4.7,79,0.00,,,0.00,WUHU216HW,2013-02-11 07:50:00,
2013-02-11 02:55:00,63.9,57.2,30.16,SE,135,2.0,4.7,79,0.00,,,0.00,WUHU216HW,2013-02-11 07:55:00,
2013-02-11 03:00:00,63.7,57.1,30.16,SE,135,1.8,4.3,79,0.00,,,0.00,WUHU216HW,2013-02-11 08:00:00,
2013-02-11 03:05:00,63.7,57.1,30.16,West,270,1.1,4.0,79,0.00,,,0.00,WUHU216HW,2013-02-11 08:05:00,
2013-02-11 03:10:00,63.7,57.4,30.16,South,180,2.2,4.3,80,0.00,,,0.00,WUHU216HW,2013-02-11 08:10:00,
2013-02-11 03:15:00,63.5,56.9,30.16,SE,135,2.7,4.3,79,0.00,,,0.00,WUHU216HW,2013-02-11 08:15:00,
2013-02-11 03:20:00,63.5,57.2,30.16,SE,135,5.4,5.4,80,0.00,,,0.00,WUHU216HW,2013-02-11 08:20:00,
2013-02-11 03:25:00,63.5,57.2,30.16,ESE,113,3.1,5.8,80,0.00,,,0.00,WUHU216HW,2013-02-11 08:25:00,
2013-02-11 03:30:00,63.5,57.2,30.16,SE,135,1.8,5.8,80,0.00,,,0.00,WUHU216HW,2013-02-11 08:30:00,
2013-02-11 03:35:00,63.5,57.2,30.16,SE,135,1.6,3.4,80,0.00,,,0.00,WUHU216HW,2013-02-11 08:35:00,
2013-02-11 03:40:00,63.5,56.9,30.15,SE,135,1.6,4.9,79,0.00,,,0.00,WUHU216HW,2013-02-11 08:40:00,
2013-02-11 03:45:00,63.5,57.2,30.15,ESE,113,4.3,4.9,80,0.00,,,0.00,WUHU216HW,2013-02-11 08:45:00,
2013-02-11 03:50:00,63.7,57.1,30.15,ESE,113,1.8,5.4,79,0.00,,,0.00,WUHU216HW,2013-02-11 08:50:00,
2013-02-11 03:55:00,63.5,56.9,30.15,ESE,113,2.2,5.4,79,0.00,,,0.00,WUHU216HW,2013-02-11 08:55:00,
2013-02-11 04:00:00,63.7,57.1,30.15,SW,225,1.1,4.7,79,0.00,,,0.00,WUHU216HW,2013-02-11 09:00:00,
2013-02-11 04:05:00,63.5,56.9,30.15,SE,135,2.2,4.7,79,0.00,,,0.00,WUHU216HW,2013-02-11 09:05:00,
2013-02-11 04:10:00,63.5,56.9,30.14,WSW,248,2.5,6.3,79,0.00,,,0.00,WUHU216HW,2013-02-11 09:10:00,
2013-02-11 04:15:00,63.5,56.9,30.15,West,270,3.4,6.3,79,0.00,,,0.00,WUHU216HW,2013-02-11 09:15:00,
2013-02-11 04:20:00,63.5,56.9,30.15,SE,135,2.2,4.7,79,0.00,,,0.00,WUHU216HW,2013-02-11 09:20:00,
2013-02-11 04:25:00,63.5,56.9,30.14,ESE,113,5.4,5.4,79,0.00,,,0.00,WUHU216HW,2013-02-11 09:25:00,
2013-02-11 04:30:00,63.5,57.2,30.15,SE,135,2.5,5.4,80,0.00,,,0.00,WUHU216HW,2013-02-11 09:30:00,
2013-02-11 04:35:00,63.5,57.2,30.15,SE,135,2.5,5.4,80,0.00,,,0.00,WUHU216HW,2013-02-11 09:35:00,
2013-02-11 04:40:00,63.5,57.2,30.15,ESE,113,1.3,4.5,80,0.00,,,0.00,WUHU216HW,2013-02-11 09:40:00,
2013-02-11 04:45:00,63.5,57.2,30.15,SE,135,3.6,4.9,80,0.00,,,0.00,WUHU216HW,2013-02-11 09:45:00,
2013-02-11 04:50:00,63.5,57.6,30.15,ESE,113,1.8,4.9,81,0.00,,,0.00,WUHU216HW,2013-02-11 09:50:00,
2013-02-11 04:55:00,63.7,57.4,30.14,SE,135,2.7,6.3,80,0.00,,,0.00,WUHU216HW,2013-02-11 09:55:00,
2013-02-11 05:00:00,63.5,57.2,30.14,SE,135,2.5,6.3,80,0.00,,,0.00,WUHU216HW,2013-02-11 10:00:00,
2013-02-11 05:05:00,63.5,57.6,30.14,SE,135,3.4,5.1,81,0.00,,,0.00,WUHU216HW,2013-02-11 10:05:00,
2013-02-11 05:10:00,63.5,57.2,30.14,SSE,158,5.8,5.8,80,0.00,,,0.00,WUHU216HW,2013-02-11 10:10:00,
2013-02-11 05:15:00,63.5,57.6,30.14,SE,135,6.9,6.9,81,0.00,,,0.00,WUHU216HW,2013-02-11 10:15:00,
2013-02-11 05:20:00,63.5,57.2,30.14,South,180,4.0,6.9,80,0.00,,,0.00,WUHU216HW,2013-02-11 10:20:00,
2013-02-11 05:25:00,63.5,57.6,30.15,West,270,3.6,6.9,81,0.00,,,0.00,WUHU216HW,2013-02-11 10:25:00,
2013-02-11 05:30:00,63.5,57.6,30.15,East,90,3.8,6.0,81,0.00,,,0.00,WUHU216HW,2013-02-11 10:30:00,
2013-02-11 05:35:00,63.5,57.6,30.15,SW,225,4.5,4.7,81,0.00,,,0.00,WUHU216HW,2013-02-11 10:35:00,
2013-02-11 05:40:00,63.5,57.6,30.15,ESE,113,2.0,4.5,81,0.00,,,0.00,WUHU216HW,2013-02-11 10:40:00,
2013-02-11 05:45:00,63.7,57.8,30.15,SE,135,5.1,5.8,81,0.00,,,0.00,WUHU216HW,2013-02-11 10:45:00,
2013-02-11 05:50:00,63.5,57.6,30.15,ESE,113,2.2,6.0,81,0.00,,,0.00,WUHU216HW,2013-02-11 10:50:00,
2013-02-11 05:55:00,63.5,57.6,30.15,ESE,113,1.8,6.0,81,0.00,,,0.00,WUHU216HW,2013-02-11 10:55:00,
2013-02-11 06:00:00,63.5,57.6,30.15,SE,135,3.1,6.9,81,0.00,,,0.00,WUHU216HW,2013-02-11 11:00:00,
2013-02-11 06:05:00,63.5,57.6,30.15,ESE,113,3.8,7.8,81,0.00,,,0.00,WUHU216HW,2013-02-11 11:05:00,
2013-02-11 06:10:00,63.5,57.6,30.15,SW,225,1.8,7.8,81,0.00,,,0.00,WUHU216HW,2013-02-11 11:10:00,
2013-02-11 06:15:00,63.5,57.6,30.15,SE,135,2.0,5.8,81,0.00,,,0.00,WUHU216HW,2013-02-11 11:15:00,
2013-02-11 06:20:00,63.5,58.0,30.15,SE,135,2.5,4.7,82,0.00,,,0.00,WUHU216HW,2013-02-11 11:20:00,
2013-02-11 06:25:00,63.5,57.6,30.15,SE,135,1.8,4.9,81,0.00,,,0.00,WUHU216HW,2013-02-11 11:25:00,
2013-02-11 06:30:00,63.4,57.8,30.15,ESE,113,3.1,4.9,82,0.00,,,0.00,WUHU216HW,2013-02-11 11:30:00,
2013-02-11 06:35:00,63.4,58.1,30.15,WSW,248,2.5,4.0,83,0.00,,,0.00,WUHU216HW,2013-02-11 11:35:00,
2013-02-11 06:40:00,63.5,58.2,30.15,SE,135,1.3,7.4,83,0.00,,,0.00,WUHU216HW,2013-02-11 11:40:00,
2013-02-11 06:45:00,63.5,58.2,30.16,SE,135,3.8,7.4,83,0.00,,,0.00,WUHU216HW,2013-02-11 11:45:00,
2013-02-11 06:50:00,63.5,58.0,30.16,SE,135,2.0,6.7,82,0.00,,,0.00,WUHU216HW,2013-02-11 11:50:00,
2013-02-11 06:55:00,63.4,57.8,30.16,SSE,158,1.8,7.2,82,0.00,,,0.00,WUHU216HW,2013-02-11 11:55:00,
2013-02-11 07:00:00,63.4,57.8,30.16,SE,135,3.4,7.2,82,0.00,,,0.00,WUHU216HW,2013-02-11 12:00:00,
2013-02-11 07:05:00,63.5,58.2,30.16,SE,135,6.0,6.0,83,0.00,,,0.00,WUHU216HW,2013-02-11 12:05:00,
2013-02-11 07:10:00,63.4,57.8,30.16,SSW,203,2.2,6.0,82,0.00,,,0.00,WUHU216HW,2013-02-11 12:10:00,
2013-02-11 07:15:00,63.4,57.8,30.17,ESE,113,1.8,6.0,82,0.00,,,0.00,WUHU216HW,2013-02-11 12:15:00,
2013-02-11 07:20:00,63.5,58.2,30.17,SSE,158,1.1,6.5,83,0.00,,,0.00,WUHU216HW,2013-02-11 12:20:00,
2013-02-11 07:25:00,63.5,58.2,30.17,SSE,158,2.5,6.5,83,0.00,,,0.00,WUHU216HW,2013-02-11 12:25:00,
2013-02-11 07:30:00,63.5,58.2,30.17,South,180,3.4,4.7,83,0.00,,,0.00,WUHU216HW,2013-02-11 12:30:00,
2013-02-11 07:35:00,63.7,58.4,30.17,SE,135,1.8,4.9,83,0.00,,,0.00,WUHU216HW,2013-02-11 12:35:00,
2013-02-11 07:40:00,63.9,58.6,30.17,ESE,113,4.0,5.6,83,0.00,,,0.00,WUHU216HW,2013-02-11 12:40:00,
2013-02-11 07:45:00,63.9,58.6,30.17,SE,135,2.5,5.6,83,0.00,,,0.00,WUHU216HW,2013-02-11 12:45:00,
2013-02-11 07:50:00,64.3,59.0,30.17,SE,135,4.9,7.4,83,0.00,,,0.00,WUHU216HW,2013-02-11 12:50:00,
2013-02-11 07:55:00,64.8,59.5,30.17,SSE,158,2.5,7.4,83,0.00,,,0.00,WUHU216HW,2013-02-11 12:55:00,
2013-02-11 08:00:00,65.0,59.3,30.17,SE,135,4.0,6.7,82,0.00,,,0.00,WUHU216HW,2013-02-11 13:00:00,
2013-02-11 08:05:00,65.2,59.5,30.17,SE,135,2.5,8.5,82,0.00,,,0.00,WUHU216HW,2013-02-11 13:05:00,
2013-02-11 08:10:00,65.3,59.7,30.17,SE,135,6.3,8.5,82,0.00,,,0.00,WUHU216HW,2013-02-11 13:10:00,
2013-02-11 08:15:00,65.5,59.9,30.17,SE,135,1.8,6.3,82,0.00,,,0.00,WUHU216HW,2013-02-11 13:15:00,
2013-02-11 08:20:00,65.7,60.0,30.17,SE,135,3.1,4.5,82,0.00,,,0.00,WUHU216HW,2013-02-11 13:20:00,
2013-02-11 08:25:00,66.1,60.4,30.17,ESE,113,4.7,5.4,82,0.00,,,0.00,WUHU216HW,2013-02-11 13:25:00,
2013-02-11 08:30:00,66.6,60.7,30.17,SW,225,4.5,7.2,81,0.00,,,0.00,WUHU216HW,2013-02-11 13:30:00,
2013-02-11 08:35:00,67.1,60.8,30.17,SE,135,2.2,7.2,80,0.00,,,0.00,WUHU216HW,2013-02-11 13:35:00,
2013-02-11 08:40:00,67.5,60.9,30.17,SE,135,6.7,11.6,79,0.00,,,0.00,WUHU216HW,2013-02-11 13:40:00,
2013-02-11 08:45:00,67.9,61.2,30.17,South,180,6.9,11.6,79,0.00,,,0.00,WUHU216HW,2013-02-11 13:45:00,
2013-02-11 08:50:00,68.0,61.4,30.17,SE,135,2.2,6.9,79,0.00,,,0.00,WUHU216HW,2013-02-11 13:50:00,
2013-02-11 08:55:00,68.6,61.5,30.17,NNW,338,1.1,6.3,78,0.00,,,0.00,WUHU216HW,2013-02-11 13:55:00,
2013-02-11 09:00:00,68.9,61.4,30.17,SE,135,3.6,7.6,77,0.00,,,0.00,WUHU216HW,2013-02-11 14:00:00,
2013-02-11 09:05:00,69.3,61.7,30.17,WSW,248,2.5,7.6,77,0.00,,,0.00,WUHU216HW,2013-02-11 14:05:00,
2013-02-11 09:10:00,69.8,61.8,30.17,SE,135,5.6,6.9,76,0.00,,,0.00,WUHU216HW,2013-02-11 14:10:00,
2013-02-11 09:15:00,70.4,61.7,30.17,ESE,113,7.6,9.8,74,0.00,,,0.00,WUHU216HW,2013-02-11 14:15:00,
2013-02-11 09:20:00,70.4,61.7,30.17,SSE,158,11.2,11.2,74,0.00,,,0.00,WUHU216HW,2013-02-11 14:20:00,
2013-02-11 09:25:00,70.2,61.5,30.17,SSW,203,3.8,11.2,74,0.00,,,0.00,WUHU216HW,2013-02-11 14:25:00,
2013-02-11 09:30:00,70.4,61.7,30.17,ENE,68,3.4,11.2,74,0.00,,,0.00,WUHU216HW,2013-02-11 14:30:00,
2013-02-11 09:35:00,70.9,62.2,30.18,SE,135,2.7,6.9,74,0.00,,,0.00,WUHU216HW,2013-02-11 14:35:00,
2013-02-11 09:40:00,71.3,62.6,30.17,SW,225,3.4,10.3,74,0.00,,,0.00,WUHU216HW,2013-02-11 14:40:00,
2013-02-11 09:45:00,71.6,62.6,30.17,WSW,248,1.3,10.3,73,0.00,,,0.00,WUHU216HW,2013-02-11 14:45:00,
2013-02-11 09:50:00,72.0,62.9,30.17,SSE,158,4.5,7.8,73,0.00,,,0.00,WUHU216HW,2013-02-11 14:50:00,
2013-02-11 09:55:00,72.4,63.3,30.17,SW,225,3.4,7.8,73,0.00,,,0.00,WUHU216HW,2013-02-11 14:55:00,
2013-02-11 10:00:00,72.5,63.0,30.17,SW,225,5.1,5.8,72,0.00,,,0.00,WUHU216HW,2013-02-11 15:00:00,
2013-02-11 10:05:00,72.9,63.0,30.17,SE,135,4.7,8.7,71,0.00,,,0.00,WUHU216HW,2013-02-11 15:05:00,
2013-02-11 10:10:00,73.1,63.2,30.16,SW,225,3.1,8.7,71,0.00,,,0.00,WUHU216HW,2013-02-11 15:10:00,
2013-02-11 10:15:00,73.4,63.5,30.16,SE,135,5.6,7.6,71,0.00,,,0.00,WUHU216HW,2013-02-11 15:15:00,
2013-02-11 10:20:00,73.6,63.7,30.16,SE,135,7.2,11.4,71,0.00,,,0.00,WUHU216HW,2013-02-11 15:20:00,
2013-02-11 10:25:00,73.8,63.6,30.16,SW,225,3.4,11.4,70,0.00,,,0.00,WUHU216HW,2013-02-11 15:25:00,
2013-02-11 10:30:00,74.0,63.2,30.17,SE,135,4.0,9.4,69,0.00,,,0.00,WUHU216HW,2013-02-11 15:30:00,
2013-02-11 10:35:00,74.5,63.3,30.17,ESE,113,5.1,8.7,68,0.00,,,0.00,WUHU216HW,2013-02-11 15:35:00,
2013-02-11 10:40:00,74.5,63.3,30.17,SW,225,3.4,9.2,68,0.00,,,0.00,WUHU216HW,2013-02-11 15:40:00,
2013-02-11 10:45:00,74.9,63.2,30.17,ESE,113,5.4,9.2,67,0.00,,,0.00,WUHU216HW,2013-02-11 15:45:00,
2013-02-11 10:50:00,75.2,63.1,30.17,South,180,4.7,8.5,66,0.00,,,0.00,WUHU216HW,2013-02-11 15:50:00,
2013-02-11 10:55:00,75.4,62.8,30.17,SSE,158,4.0,9.6,65,0.00,,,0.00,WUHU216HW,2013-02-11 15:55:00,
2013-02-11 11:00:00,75.8,63.2,30.16,ESE,113,6.3,9.6,65,0.00,,,0.00,WUHU216HW,2013-02-11 16:00:00,
2013-02-11 11:05:00,76.1,63.9,30.16,SE,135,1.8,8.1,66,0.00,,,0.00,WUHU216HW,2013-02-11 16:05:00,
2013-02-11 11:10:00,76.7,64.0,30.16,SE,135,2.5,8.1,65,0.00,,,0.00,WUHU216HW,2013-02-11 16:10:00,
2013-02-11 11:15:00,77.0,63.5,30.16,SE,135,4.0,13.2,63,0.00,,,0.00,WUHU216HW,2013-02-11 16:15:00,
2013-02-11 11:21:00,77.2,63.6,30.16,SSW,203,3.6,13.2,63,0.00,,,0.00,WUHU216HW,2013-02-11 16:21:00,
2013-02-11 11:26:00,77.6,64.0,30.16,SE,135,1.6,8.9,63,0.00,,,0.00,WUHU216HW,2013-02-11 16:26:00,
2013-02-11 11:31:00,78.1,63.2,30.16,WSW,248,6.0,7.2,60,0.00,,,0.00,WUHU216HW,2013-02-11 16:31:00,
2013-02-11 11:36:00,77.9,63.0,30.16,SSE,158,5.8,8.7,60,0.00,,,0.00,WUHU216HW,2013-02-11 16:36:00,
2013-02-11 11:41:00,78.3,63.8,30.16,NW,315,7.4,8.7,61,0.00,,,0.00,WUHU216HW,2013-02-11 16:41:00,
2013-02-11 11:45:00,78.7,63.7,30.16,SSE,158,1.8,9.8,60,0.00,,,0.00,WUHU216HW,2013-02-11 16:45:00,
2013-02-11 11:50:00,79.0,64.1,30.16,SW,225,6.9,9.8,60,0.00,,,0.00,WUHU216HW,2013-02-11 16:50:00,
2013-02-11 11:55:00,79.4,63.9,30.15,SE,135,3.4,6.9,59,0.00,,,0.00,WUHU216HW,2013-02-11 16:55:00,
2013-02-11 12:00:00,79.7,63.6,30.15,North,0,1.8,5.6,58,0.00,,,0.00,WUHU216HW,2013-02-11 17:00:00,
2013-02-11 12:05:00,79.7,63.6,30.15,SSE,158,4.9,7.6,58,0.00,,,0.00,WUHU216HW,2013-02-11 17:05:00,
2013-02-11 12:11:00,79.7,63.2,30.15,East,90,4.3,7.6,57,0.00,,,0.00,WUHU216HW,2013-02-11 17:11:00,
2013-02-11 12:16:00,80.1,64.5,30.15,SE,135,2.0,6.3,59,0.00,,,0.00,WUHU216HW,2013-02-11 17:16:00,
2013-02-11 12:21:00,80.3,64.2,30.15,SSE,158,4.5,6.0,58,0.00,,,0.00,WUHU216HW,2013-02-11 17:21:00,
2013-02-11 12:26:00,80.6,64.4,30.14,WSW,248,1.3,8.7,58,0.00,,,0.00,WUHU216HW,2013-02-11 17:26:00,
2013-02-11 12:30:00,81.2,64.4,30.14,SE,135,5.8,8.7,57,0.00,,,0.00,WUHU216HW,2013-02-11 17:30:00,
2013-02-11 12:35:00,81.7,64.5,30.14,South,180,4.7,5.8,56,0.00,,,0.00,WUHU216HW,2013-02-11 17:35:00,
2013-02-11 12:41:00,81.7,63.9,30.13,ESE,113,4.5,6.0,55,0.00,,,0.00,WUHU216HW,2013-02-11 17:41:00,
2013-02-11 12:45:00,81.5,63.2,30.13,SE,135,3.4,7.6,54,0.00,,,0.00,WUHU216HW,2013-02-11 17:45:00,
2013-02-11 12:50:00,81.4,63.5,30.13,NNW,338,3.4,8.9,55,0.00,,,0.00,WUHU216HW,2013-02-11 17:50:00,
2013-02-11 12:55:00,81.0,63.3,30.13,SSE,158,4.0,8.9,55,0.00,,,0.00,WUHU216HW,2013-02-11 17:55:00,
2013-02-11 13:00:00,80.6,63.5,30.12,West,270,4.0,6.9,56,0.00,,,0.00,WUHU216HW,2013-02-11 18:00:00,
2013-02-11 13:05:00,81.0,64.8,30.12,SE,135,4.0,5.1,58,0.00,,,0.00,WUHU216HW,2013-02-11 18:05:00,
2013-02-11 13:10:00,81.4,64.6,30.12,ESE,113,4.3,4.9,57,0.00,,,0.00,WUHU216HW,2013-02-11 18:10:00,
2013-02-11 13:15:00,81.7,64.5,30.11,SW,225,5.4,7.4,56,0.00,,,0.00,WUHU216HW,2013-02-11 18:15:00,
2013-02-11 13:20:00,82.1,63.7,30.11,WSW,248,5.1,7.4,54,0.00,,,0.00,WUHU216HW,2013-02-11 18:20:00,
2013-02-11 13:25:00,82.1,63.7,30.11,SE,135,0.7,7.2,54,0.00,,,0.00,WUHU216HW,2013-02-11 18:25:00,
2013-02-11 13:30:00,81.9,64.1,30.10,NW,315,3.6,7.2,55,0.00,,,0.00,WUHU216HW,2013-02-11 18:30:00,
2013-02-11 13:35:00,81.9,63.0,30.10,WNW,293,2.5,4.7,53,0.00,,,0.00,WUHU216HW,2013-02-11 18:35:00,
2013-02-11 13:40:00,81.5,63.2,30.10,NW,315,2.0,6.3,54,0.00,,,0.00,WUHU216HW,2013-02-11 18:40:00,
2013-02-11 13:45:00,81.4,63.5,30.10,SSW,203,5.1,7.2,55,0.00,,,0.00,WUHU216HW,2013-02-11 18:45:00,
2013-02-11 13:50:00,81.4,63.5,30.10,SE,135,2.9,7.2,55,0.00,,,0.00,WUHU216HW,2013-02-11 18:50:00,
2013-02-11 13:55:00,81.5,63.2,30.09,West,270,4.9,6.3,54,0.00,,,0.00,WUHU216HW,2013-02-11 18:55:00,
2013-02-11 14:00:00,81.7,63.9,30.09,SE,135,2.0,4.9,55,0.00,,,0.00,WUHU216HW,2013-02-11 19:00:00,
2013-02-11 14:06:00,82.1,63.7,30.09,West,270,0.9,4.5,54,0.00,,,0.00,WUHU216HW,2013-02-11 19:06:00,
2013-02-11 14:11:00,82.4,63.5,30.08,WNW,293,2.5,5.6,53,0.00,,,0.00,WUHU216HW,2013-02-11 19:11:00,
2013-02-11 14:15:00,83.2,64.2,30.08,ESE,113,0.9,5.6,53,0.00,,,0.00,WUHU216HW,2013-02-11 19:15:00,
2013-02-11 14:21:00,83.2,63.7,30.08,West,270,3.8,4.5,52,0.00,,,0.00,WUHU216HW,2013-02-11 19:21:00,
2013-02-11 14:26:00,83.0,63.0,30.08,WSW,248,3.1,4.9,51,0.00,,,0.00,WUHU216HW,2013-02-11 19:26:00,
2013-02-11 14:31:00,82.8,62.8,30.08,SE,135,2.9,8.1,51,0.00,,,0.00,WUHU216HW,2013-02-11 19:31:00,
2013-02-11 14:36:00,82.4,62.5,30.08,NW,315,1.8,8.1,51,0.00,,,0.00,WUHU216HW,2013-02-11 19:36:00,
2013-02-11 14:41:00,82.8,62.8,30.08,SE,135,3.4,6.9,51,0.00,,,0.00,WUHU216HW,2013-02-11 19:41:00,
2013-02-11 14:46:00,82.8,62.8,30.07,SW,225,0.9,6.5,51,0.00,,,0.00,WUHU216HW,2013-02-11 19:46:00,
2013-02-11 14:51:00,82.4,63.0,30.07,SW,225,1.6,8.1,52,0.00,,,0.00,WUHU216HW,2013-02-11 19:51:00,
2013-02-11 14:56:00,82.4,63.0,30.07,NNW,338,1.1,8.1,52,0.00,,,0.00,WUHU216HW,2013-02-11 19:56:00,
2013-02-11 15:01:00,82.4,63.0,30.07,WSW,248,1.8,4.5,52,0.00,,,0.00,WUHU216HW,2013-02-11 20:01:00,
2013-02-11 15:06:00,82.3,62.8,30.07,WSW,248,1.1,4.5,52,0.00,,,0.00,WUHU216HW,2013-02-11 20:06:00,
2013-02-11 15:11:00,82.4,63.0,30.07,SE,135,5.1,5.1,52,0.00,,,0.00,WUHU216HW,2013-02-11 20:11:00,
2013-02-11 15:16:00,82.3,63.4,30.07,South,180,1.1,5.4,53,0.00,,,0.00,WUHU216HW,2013-02-11 20:16:00,
2013-02-11 15:21:00,82.3,62.3,30.07,SE,135,1.8,5.4,51,0.00,,,0.00,WUHU216HW,2013-02-11 20:21:00,
2013-02-11 15:26:00,82.1,63.2,30.07,WSW,248,2.9,5.1,53,0.00,,,0.00,WUHU216HW,2013-02-11 20:26:00,
2013-02-11 15:31:00,82.1,63.2,30.06,WSW,248,0.4,6.0,53,0.00,,,0.00,WUHU216HW,2013-02-11 20:31:00,
2013-02-11 15:36:00,82.1,62.6,30.06,WNW,293,1.8,6.0,52,0.00,,,0.00,WUHU216HW,2013-02-11 20:36:00,
2013-02-11 15:41:00,81.9,63.0,30.06,SE,135,2.5,4.3,53,0.00,,,0.00,WUHU216HW,2013-02-11 20:41:00,
2013-02-11 15:46:00,82.1,63.2,30.06,SE,135,3.8,6.7,53,0.00,,,0.00,WUHU216HW,2013-02-11 20:46:00,
2013-02-11 15:51:00,82.1,63.2,30.06,NNW,338,1.1,6.7,53,0.00,,,0.00,WUHU216HW,2013-02-11 20:51:00,
2013-02-11 15:56:00,82.1,63.2,30.06,SW,225,1.6,4.5,53,0.00,,,0.00,WUHU216HW,2013-02-11 20:56:00,
2013-02-11 16:01:00,81.9,62.5,30.06,WSW,248,2.5,4.5,52,0.00,,,0.00,WUHU216HW,2013-02-11 21:01:00,
2013-02-11 16:06:00,81.9,63.0,30.06,West,270,0.7,3.6,53,0.00,,,0.00,WUHU216HW,2013-02-11 21:06:00,
2013-02-11 16:11:00,81.9,63.0,30.06,WNW,293,1.1,3.6,53,0.00,,,0.00,WUHU216HW,2013-02-11 21:11:00,
2013-02-11 16:16:00,81.9,63.0,30.06,SE,135,1.6,4.3,53,0.00,,,0.00,WUHU216HW,2013-02-11 21:16:00,
2013-02-11 16:21:00,81.7,63.4,30.06,WNW,293,0.4,5.8,54,0.00,,,0.00,WUHU216HW,2013-02-11 21:21:00,
2013-02-11 16:26:00,81.7,63.4,30.06,SE,135,0.7,5.8,54,0.00,,,0.00,WUHU216HW,2013-02-11 21:26:00,
2013-02-11 16:31:00,80.3,64.7,30.05,ESE,113,0.7,3.4,59,0.00,,,0.00,WUHU216HW,2013-02-11 21:31:00,
2013-02-11 16:36:00,79.2,64.6,30.05,ESE,113,2.0,3.4,61,0.00,,,0.00,WUHU216HW,2013-02-11 21:36:00,
2013-02-11 16:41:00,78.3,64.7,30.05,ESE,113,3.1,6.3,63,0.00,,,0.00,WUHU216HW,2013-02-11 21:41:00,
2013-02-11 16:46:00,77.6,64.9,30.06,NE,45,1.8,6.3,65,0.00,,,0.00,WUHU216HW,2013-02-11 21:46:00,
2013-02-11 16:51:00,76.9,64.2,30.06,SE,135,5.4,5.6,65,0.00,,,0.00,WUHU216HW,2013-02-11 21:51:00,
2013-02-11 16:56:00,76.3,64.1,30.06,ESE,113,4.0,5.6,66,0.00,,,0.00,WUHU216HW,2013-02-11 21:56:00,
2013-02-11 17:01:00,75.6,63.8,30.06,ESE,113,2.9,5.4,67,0.00,,,0.00,WUHU216HW,2013-02-11 22:01:00,
2013-02-11 17:06:00,75.2,64.4,30.06,ENE,68,0.9,4.0,69,0.00,,,0.00,WUHU216HW,2013-02-11 22:06:00,
2013-02-11 17:11:00,74.9,63.6,30.06,ESE,113,2.5,3.8,68,0.00,,,0.00,WUHU216HW,2013-02-11 22:11:00,
2013-02-11 17:16:00,74.7,64.4,30.06,East,90,0.7,2.5,70,0.00,,,0.00,WUHU216HW,2013-02-11 22:16:00,
2013-02-11 17:21:00,74.3,64.0,30.06,SE,135,3.4,3.4,70,0.00,,,0.00,WUHU216HW,2013-02-11 22:21:00,
2013-02-11 17:26:00,74.2,63.8,30.06,ESE,113,0.9,4.3,70,0.00,,,0.00,WUHU216HW,2013-02-11 22:26:00,
2013-02-11 17:31:00,73.8,63.9,30.06,ESE,113,4.9,5.4,71,0.00,,,0.00,WUHU216HW,2013-02-11 22:31:00,
2013-02-11 17:36:00,73.4,63.9,30.06,NNE,23,1.1,5.4,72,0.00,,,0.00,WUHU216HW,2013-02-11 22:36:00,
2013-02-11 17:41:00,73.3,63.7,30.06,ESE,113,1.6,6.3,72,0.00,,,0.00,WUHU216HW,2013-02-11 22:41:00,
2013-02-11 17:46:00,73.1,63.5,30.05,ESE,113,2.5,6.3,72,0.00,,,0.00,WUHU216HW,2013-02-11 22:46:00,
2013-02-11 17:51:00,72.7,63.6,30.06,ESE,113,2.5,5.1,73,0.00,,,0.00,WUHU216HW,2013-02-11 22:51:00,
2013-02-11 17:56:00,72.5,63.5,30.06,SE,135,0.2,5.1,73,0.00,,,0.00,WUHU216HW,2013-02-11 22:56:00,
2013-02-11 18:01:00,72.4,63.3,30.06,East,90,0.4,2.5,73,0.00,,,0.00,WUHU216HW,2013-02-11 23:01:00,
2013-02-11 18:06:00,72.4,63.6,30.06,SE,135,2.0,2.9,74,0.00,,,0.00,WUHU216HW,2013-02-11 23:06:00,
2013-02-11 18:11:00,72.0,62.9,30.06,SE,135,2.5,4.0,73,0.00,,,0.00,WUHU216HW,2013-02-11 23:11:00,
2013-02-11 18:16:00,72.0,62.9,30.06,ESE,113,1.8,4.0,73,0.00,,,0.00,WUHU216HW,2013-02-11 23:16:00,
2013-02-11 18:21:00,71.6,62.6,30.06,SE,135,1.8,3.4,73,0.00,,,0.00,WUHU216HW,2013-02-11 23:21:00,
2013-02-11 18:26:00,71.6,62.6,30.07,SE,135,0.2,3.4,73,0.00,,,0.00,WUHU216HW,2013-02-11 23:26:00,
2013-02-11 18:31:00,71.5,62.7,30.07,SE,135,0.4,3.1,74,0.00,,,0.00,WUHU216HW,2013-02-11 23:31:00,
2013-02-11 18:36:00,71.3,62.6,30.07,East,90,0.0,3.1,74,0.00,,,0.00,WUHU216HW,2013-02-11 23:36:00,
2013-02-11 18:41:00,71.3,62.6,30.07,SE,135,0.9,1.8,74,0.00,,,0.00,WUHU216HW,2013-02-11 23:41:00,
2013-02-11 18:46:00,71.3,62.6,30.07,SE,135,0.2,1.8,74,0.00,,,0.00,WUHU216HW,2013-02-11 23:46:00,
2013-02-11 18:51:00,71.1,62.4,30.07,SE,135,0.4,1.3,74,0.00,,,0.00,WUHU216HW,2013-02-11 23:51:00,
2013-02-11 18:56:00,70.9,62.2,30.07,ESE,113,0.4,2.5,74,0.00,,,0.00,WUHU216HW,2013-02-11 23:56:00,
2013-02-11 19:01:00,70.9,62.2,30.07,SE,135,1.8,2.5,74,0.00,,,0.00,WUHU216HW,2013-02-12 00:01:00,
2013-02-11 19:06:00,70.7,62.0,30.07,SE,135,0.0,2.2,74,0.00,,,0.00,WUHU216HW,2013-02-12 00:06:00,
2013-02-11 19:11:00,70.7,62.0,30.07,ESE,113,0.7,1.3,74,0.00,,,0.00,WUHU216HW,2013-02-12 00:11:00,
2013-02-11 19:16:00,70.7,62.0,30.07,SE,135,1.8,2.0,74,0.00,,,0.00,WUHU216HW,2013-02-12 00:16:00,
2013-02-11 19:21:00,70.6,61.8,30.08,ESE,113,2.5,2.5,74,0.00,,,0.00,WUHU216HW,2013-02-12 00:21:00,
2013-02-11 19:26:00,70.6,61.8,30.07,SE,135,0.9,2.5,74,0.00,,,0.00,WUHU216HW,2013-02-12 00:26:00,
2013-02-11 19:31:00,70.4,62.0,30.07,ESE,113,0.2,2.5,75,0.00,,,0.00,WUHU216HW,2013-02-12 00:31:00,
2013-02-11 19:36:00,70.4,62.0,30.07,ESE,113,1.1,1.1,75,0.00,,,0.00,WUHU216HW,2013-02-12 00:36:00,
2013-02-11 19:41:00,70.2,61.8,30.07,SE,135,0.9,1.1,75,0.00,,,0.00,WUHU216HW,2013-02-12 00:41:00,
2013-02-11 19:46:00,70.2,61.8,30.07,SE,135,1.1,2.2,75,0.00,,,0.00,WUHU216HW,2013-02-12 00:46:00,
2013-02-11 19:51:00,70.2,61.8,30.07,SE,135,0.7,2.2,75,0.00,,,0.00,WUHU216HW,2013-02-12 00:51:00,
2013-02-11 19:56:00,70.0,61.7,30.08,SSE,158,0.0,1.1,75,0.00,,,0.00,WUHU216HW,2013-02-12 00:56:00,
2013-02-11 20:01:00,69.8,61.8,30.08,South,180,0.0,0.7,76,0.00,,,0.00,WUHU216HW,2013-02-12 01:01:00,
2013-02-11 20:06:00,69.5,61.6,30.08,South,180,0.0,0.4,76,0.00,,,0.00,WUHU216HW,2013-02-12 01:06:00,
2013-02-11 20:11:00,69.5,61.6,30.08,South,180,0.0,0.0,76,0.00,,,0.00,WUHU216HW,2013-02-12 01:11:00,
2013-02-11 20:16:00,69.1,61.2,30.08,South,180,0.0,0.0,76,0.00,,,0.00,WUHU216HW,2013-02-12 01:16:00,
2013-02-11 20:21:00,68.9,61.0,30.08,South,180,0.0,0.0,76,0.00,,,0.00,WUHU216HW,2013-02-12 01:21:00,
2013-02-11 20:26:00,68.9,61.4,30.08,South,180,0.0,0.0,77,0.00,,,0.00,WUHU216HW,2013-02-12 01:26:00,
2013-02-11 20:31:00,68.8,61.3,30.08,South,180,0.0,0.0,77,0.00,,,0.00,WUHU216HW,2013-02-12 01:31:00,
2013-02-11 20:36:00,68.6,61.1,30.08,South,180,0.0,0.0,77,0.00,,,0.00,WUHU216HW,2013-02-12 01:36:00,
2013-02-11 20:41:00,68.2,60.8,30.08,SE,135,0.0,0.7,77,0.00,,,0.00,WUHU216HW,2013-02-12 01:41:00,
2013-02-11 20:46:00,68.0,61.0,30.08,SE,135,0.0,1.1,78,0.00,,,0.00,WUHU216HW,2013-02-12 01:46:00,
2013-02-11 20:51:00,68.0,61.0,30.08,SE,135,0.2,1.1,78,0.00,,,0.00,WUHU216HW,2013-02-12 01:51:00,
2013-02-11 20:56:00,67.9,60.9,30.08,SE,135,0.0,1.1,78,0.00,,,0.00,WUHU216HW,2013-02-12 01:56:00,
2013-02-11 21:01:00,67.7,60.7,30.08,SE,135,0.2,0.2,78,0.00,,,0.00,WUHU216HW,2013-02-12 02:01:00,
2013-02-11 21:06:00,67.7,61.0,30.08,SE,135,0.2,0.4,79,0.00,,,0.00,WUHU216HW,2013-02-12 02:06:00,
2013-02-11 21:11:00,67.5,60.9,30.07,SE,135,0.0,0.4,79,0.00,,,0.00,WUHU216HW,2013-02-12 02:11:00,
2013-02-11 21:16:00,67.3,60.7,30.08,SE,135,0.0,0.4,79,0.00,,,0.00,WUHU216HW,2013-02-12 02:16:00,
2013-02-11 21:21:00,67.0,60.3,30.08,SE,135,0.0,0.0,79,0.00,,,0.00,WUHU216HW,2013-02-12 02:21:00,
2013-02-11 21:26:00,67.0,60.7,30.07,SE,135,0.4,0.4,80,0.00,,,0.00,WUHU216HW,2013-02-12 02:26:00,
2013-02-11 21:31:00,66.8,60.5,30.07,SE,135,0.0,0.4,80,0.00,,,0.00,WUHU216HW,2013-02-12 02:31:00,
2013-02-11 21:36:00,66.6,60.3,30.07,SE,135,0.0,0.4,80,0.00,,,0.00,WUHU216HW,2013-02-12 02:36:00,
2013-02-11 21:41:00,66.2,59.9,30.07,SE,135,0.0,0.0,80,0.00,,,0.00,WUHU216HW,2013-02-12 02:41:00,
2013-02-11 21:46:00,66.1,60.1,30.06,SE,135,0.0,0.0,81,0.00,,,0.00,WUHU216HW,2013-02-12 02:46:00,
2013-02-11 21:51:00,65.9,60.0,30.06,SE,135,0.2,0.4,81,0.00,,,0.00,WUHU216HW,2013-02-12 02:51:00,
2013-02-11 21:56:00,65.9,60.0,30.06,SE,135,0.0,0.4,81,0.00,,,0.00,WUHU216HW,2013-02-12 02:56:00,
2013-02-11 22:01:00,65.9,60.0,30.06,SE,135,0.0,0.4,81,0.00,,,0.00,WUHU216HW,2013-02-12 03:01:00,
2013-02-11 22:06:00,65.7,59.8,30.06,SE,135,0.0,0.0,81,0.00,,,0.00,WUHU216HW,2013-02-12 03:06:00,
2013-02-11 22:11:00,65.5,59.9,30.06,SE,135,0.0,0.0,82,0.00,,,0.00,WUHU216HW,2013-02-12 03:11:00,
2013-02-11 22:16:00,65.3,59.7,30.07,SE,135,0.0,0.0,82,0.00,,,0.00,WUHU216HW,2013-02-12 03:16:00,
2013-02-11 22:21:00,65.2,59.5,30.07,SE,135,0.0,0.0,82,0.00,,,0.00,WUHU216HW,2013-02-12 03:21:00,
2013-02-11 22:26:00,65.0,59.3,30.06,SE,135,0.0,0.2,82,0.00,,,0.00,WUHU216HW,2013-02-12 03:26:00,
2013-02-11 22:31:00,64.8,59.5,30.06,SE,135,0.0,0.2,83,0.00,,,0.00,WUHU216HW,2013-02-12 03:31:00,
2013-02-11 22:36:00,64.6,59.1,30.06,SE,135,0.0,0.0,82,0.00,,,0.00,WUHU216HW,2013-02-12 03:36:00,
2013-02-11 22:41:00,64.6,59.1,30.07,SE,135,0.0,0.0,82,0.00,,,0.00,WUHU216HW,2013-02-12 03:41:00,
2013-02-11 22:46:00,64.6,59.1,30.07,SE,135,0.0,0.0,82,0.00,,,0.00,WUHU216HW,2013-02-12 03:46:00,
2013-02-11 22:51:00,64.4,58.9,30.07,SE,135,0.0,0.4,82,0.00,,,0.00,WUHU216HW,2013-02-12 03:51:00,
2013-02-11 22:56:00,64.6,59.1,30.07,SE,135,0.0,0.4,82,0.00,,,0.00,WUHU216HW,2013-02-12 03:56:00,
2013-02-11 23:01:00,64.6,59.1,30.07,SE,135,0.0,0.0,82,0.00,,,0.00,WUHU216HW,2013-02-12 04:01:00,
2013-02-11 23:06:00,64.4,58.9,30.07,SE,135,0.0,0.0,82,0.00,,,0.00,WUHU216HW,2013-02-12 04:06:00,
2013-02-11 23:11:00,64.4,58.9,30.07,SE,135,0.0,0.0,82,0.00,,,0.00,WUHU216HW,2013-02-12 04:11:00,
2013-02-11 23:16:00,64.4,59.1,30.07,SE,135,0.0,0.0,83,0.00,,,0.00,WUHU216HW,2013-02-12 04:16:00,
2013-02-11 23:21:00,64.1,58.8,30.07,SE,135,0.0,0.0,83,0.00,,,0.00,WUHU216HW,2013-02-12 04:21:00,
2013-02-11 23:26:00,63.9,58.6,30.08,SE,135,0.0,0.0,83,0.00,,,0.00,WUHU216HW,2013-02-12 04:26:00,
2013-02-11 23:31:00,63.7,58.4,30.08,SE,135,0.0,0.0,83,0.00,,,0.00,WUHU216HW,2013-02-12 04:31:00,
2013-02-11 23:36:00,63.7,58.4,30.08,SE,135,0.0,0.0,83,0.00,,,0.00,WUHU216HW,2013-02-12 04:36:00,
2013-02-11 23:41:00,63.7,58.4,30.08,SE,135,0.0,0.0,83,0.00,,,0.00,WUHU216HW,2013-02-12 04:41:00,
2013-02-11 23:46:00,63.4,58.1,30.08,SE,135,0.0,0.0,83,0.00,,,0.00,WUHU216HW,2013-02-12 04:46:00,
2013-02-11 23:51:00,63.4,58.1,30.07,SE,135,0.0,0.0,83,0.00,,,0.00,WUHU216HW,2013-02-12 04:51:00,
2013-02-11 23:56:00,63.2,57.9,30.08,SE,135,0.0,0.0,83,0.00,,,0.00,WUHU216HW,2013-02-12 04:56:00,